Weather History for Lexington, KY

Change the Weather History Date:

Saturday, April 12, 2014

  Actual Average Record
Temperature  
Mean Temperature 65 °F 54 °F  
Max Temperature 79 °F 65 °F 85 °F (1930)
Min Temperature 51 °F 44 °F 24 °F (1976)
Degree Days  
Heating Degree Days 0 11  
Month to date heating degree days 86 156  
Since 1 July heating degree days 4645 4332  
Cooling Degree Days 0 1  
Month to date cooling degree days 2 3  
Year to date cooling degree days 2 5  
Growing Degree Days 15 (Base 50)    
Moisture  
Dew Point 52 °F    
Average Humidity 66    
Maximum Humidity 93    
Minimum Humidity 39    
Precipitation  
Precipitation 0.00 in 0.11 in 2.85 in (1948)
Month to date precipitation 1.63 1.35  
Year to date precipitation 11.56 11.82  
Snow  
Snow 0.00 in 0.00 in 0.80 in (1940)
Month to date snowfall 0.0 0.2  
Since 1 July snowfall 26.8 12.9  
Snow Depth 0.00 in    
Sea Level Pressure  
Sea Level Pressure 30.06 in    
Wind  
Wind Speed 9 mph (South)    
Max Wind Speed 23 mph    
Max Gust Speed 27 mph    
Visibility 10 miles    
Events      
T = Trace of Precipitation, MM = Missing Value Source: NWS Daily Summary

Daily Weather History Graph

Daily Weather History Graph

Search for Another Location

Airport:

Trip Planner

Search our weather history database for the weather conditions in past years. The results will help you decide how hot, cold, wet, or windy it might be!

Date:

Astronomy

Apr. 12, 2014 Rise Set
Actual Time 7:07 AM EDT 8:11 PM EDT
Civil Twilight 6:40 AM EDT 8:38 PM EDT
Nautical Twilight 6:08 AM EDT 9:11 PM EDT
Astronomical Twilight 5:34 AM EDT 9:44 PM EDT
Moon 5:51 PM EDT (4/12) 5:31 AM EDT (4/12)
Length of Visible Light 13h 58m
Length of Day
13h 04m
Waxing Gibbous, 93% of the Moon is Illuminated
Apr 12
Waxing Gibbous
Apr 15
Full
Apr 22
Last Quarter
Apr 29
New
May 6
First Quarter

Hourly Weather History & Observations

Time (EDT) Temp. Dew Point Humidity Pressure Visibility Wind Dir Wind Speed Gust Speed Precip Events Conditions
12:54 AM 55.9 °F 50.0 °F 80% 30.10 in 10.0 mi Calm Calm - N/A   Partly Cloudy
1:54 AM 54.0 °F 48.9 °F 83% 30.10 in 10.0 mi Calm Calm - N/A   Mostly Cloudy
2:54 AM 54.0 °F 50.0 °F 86% 30.10 in 10.0 mi South 5.8 mph - N/A   Mostly Cloudy
3:54 AM 55.9 °F 50.0 °F 80% 30.11 in 10.0 mi SSW 4.6 mph - N/A   Overcast
4:54 AM 55.9 °F 50.0 °F 80% 30.12 in 10.0 mi SSW 5.8 mph - N/A   Partly Cloudy
5:54 AM 55.9 °F 51.1 °F 84% 30.12 in 10.0 mi South 4.6 mph - N/A   Clear
6:54 AM 55.0 °F 51.1 °F 86% 30.14 in 10.0 mi South 4.6 mph - N/A   Clear
7:54 AM 54.0 °F 51.1 °F 90% 30.16 in 10.0 mi SSE 5.8 mph - N/A   Clear
8:54 AM 59.0 °F 53.1 °F 81% 30.16 in 10.0 mi SSE 9.2 mph - N/A   Clear
9:54 AM 63.0 °F 55.0 °F 75% 30.15 in 10.0 mi South 9.2 mph - N/A   Clear
10:54 AM 66.9 °F 55.0 °F 66% 30.16 in 10.0 mi South 9.2 mph - N/A   Clear
11:54 AM 72.0 °F 55.9 °F 57% 30.15 in 10.0 mi South 11.5 mph - N/A   Clear
12:54 PM 73.0 °F 54.0 °F 51% 30.12 in 10.0 mi SSW 8.1 mph 17.3 mph N/A   Partly Cloudy
1:54 PM 77.0 °F 53.1 °F 43% 30.08 in 10.0 mi South 11.5 mph - N/A   Partly Cloudy
2:54 PM 75.9 °F 52.0 °F 43% 30.06 in 10.0 mi SSW 10.4 mph 20.7 mph N/A   Partly Cloudy
3:54 PM 78.1 °F 53.1 °F 42% 30.01 in 10.0 mi South 10.4 mph - N/A   Clear
4:54 PM 78.1 °F 51.1 °F 39% 29.99 in 10.0 mi SSW 11.5 mph 23.0 mph N/A   Clear
5:54 PM 79.0 °F 51.1 °F 38% 29.96 in 10.0 mi SSW 16.1 mph - N/A   Clear
6:54 PM 78.1 °F 51.1 °F 39% 29.96 in 10.0 mi SSW 11.5 mph - N/A   Clear
7:54 PM 73.9 °F 52.0 °F 46% 29.96 in 10.0 mi SSW 9.2 mph - N/A   Clear
8:54 PM 70.0 °F 52.0 °F 53% 29.96 in 10.0 mi South 6.9 mph - N/A   Clear
9:54 PM 68.0 °F 52.0 °F 56% 29.95 in 10.0 mi South 10.4 mph - N/A   Clear
10:54 PM 68.0 °F 51.1 °F 55% 29.94 in 10.0 mi South 11.5 mph - N/A   Clear
11:54 PM 66.9 °F 51.1 °F 57% 29.93 in 10.0 mi South 12.7 mph - N/A   Clear